EW6418 Weather Reports


Display with metric or nautical units.
time (UTC)temp
F
wind
direction
speed
MPH
gust
MPH
rain 1hr
in
rain 24hr
in
rain mn
in
humidity
%
barometer
mb
20260507043056 43 132 0.0 0.0 0.00 0.26 0.00 100 1020.1
20260507041552 43 132 0.0 0.0 0.00 0.26 0.00 100 1020.0
20260507040048 44 132 0.0 0.0 0.00 0.26 0.00 100 1019.9
20260507034546 44 132 0.0 0.0 0.00 0.28 0.26 100 1020.0
20260507033044 45 132 0.0 0.0 0.00 0.28 0.26 100 1019.9
20260507031543 46 360 0.0 0.0 0.00 0.28 0.26 100 1020.0
20260507030041 47 132 0.0 0.0 0.00 0.28 0.26 100 1020.1
20260507024541 48 360 0.0 0.0 0.00 0.42 0.26 100 1020.1
20260507023042 48 132 0.0 0.0 0.00 0.42 0.26 100 1019.9
20260507021542 49 133 0.0 0.0 0.00 0.42 0.26 100 1019.9
20260507020037 50 360 0.0 0.0 0.00 0.42 0.26 100 1019.8
20260507014534 50 360 0.0 0.0 0.00 0.45 0.26 100 1019.6
20260507013033 51 360 0.0 1.0 0.00 0.45 0.26 100 1018.9
20260507011538 52 360 0.0 1.0 0.00 0.45 0.26 100 1019.1
20260507010048 53 360 0.0 1.0 0.00 0.45 0.26 100 1019.2
20260507004534 53 360 0.0 3.0 0.00 0.45 0.26 100 1019.2
20260507003029 54 134 2.0 7.0 0.00 0.45 0.26 100 1018.9
20260507001527 54 117 3.0 9.0 0.00 0.45 0.26 100 1018.5
20260507000026 55 115 2.0 4.0 0.00 0.45 0.26 100 1018.2
20260506234528 55 120 1.0 7.0 0.00 0.45 0.26 100 1018.1
20260506233025 55 110 2.0 6.0 0.00 0.45 0.26 100 1017.7
20260506231525 56 123 2.0 7.0 0.00 0.45 0.26 100 1018.0
20260506230028 56 112 2.0 8.0 0.00 0.45 0.26 100 1017.9
20260506224524 57 125 2.0 6.0 0.00 0.45 0.26 100 1018.3
20260506223024 57 113 2.0 7.0 0.00 0.45 0.26 100 1018.4
20260506221522 57 121 2.0 7.0 0.00 0.45 0.26 100 1018.2
20260506220028 57 136 1.0 5.0 0.00 0.45 0.26 100 1018.4
20260506214518 58 170 3.0 7.0 0.00 0.48 0.26 100 1018.1
20260506213017 58 121 1.0 5.0 0.00 0.48 0.26 100 1017.7
20260506211516 58 105 1.0 8.0 0.00 0.48 0.26 100 1017.5
20260506210020 59 117 2.0 5.0 0.00 0.48 0.26 100 1017.4
20260506204516 60 117 2.0 6.0 0.00 0.48 0.26 100 1017.4
20260506203016 60 128 2.0 5.0 0.00 0.48 0.26 100 1017.4
20260506201526 60 180 2.0 8.0 0.00 0.48 0.26 100 1017.5
20260506200014 60 113 3.0 7.0 0.00 0.48 0.26 100 1017.2
20260506194513 61 115 2.0 7.0 0.00 0.48 0.26 100 1017.4
20260506193012 61 90 2.0 10.0 0.00 0.48 0.26 100 1017.2
20260506191512 61 117 2.0 9.0 0.00 0.48 0.26 100 1017.1
20260506190018 61 140 2.0 9.0 0.00 0.48 0.26 100 1017.1
20260506184518 60 151 5.0 11.0 0.00 0.48 0.26 100 1017.1
20260506183008 60 117 2.0 7.0 0.00 0.48 0.26 100 1017.3
20260506181507 60 107 2.0 7.0 0.00 0.48 0.26 100 1017.3
20260506180007 60 115 1.0 8.0 0.00 0.48 0.26 100 1017.5
20260506174511 59 111 3.0 8.0 0.00 0.48 0.26 100 1017.5
20260506173002 59 155 2.0 7.0 0.00 0.48 0.26 100 1017.5
20260506171609 58 109 2.0 7.0 0.00 0.48 0.26 100 1017.6
20260506170100 58 156 1.0 6.0 0.00 0.48 0.26 100 1017.7
20260506164559 57 132 4.0 9.0 0.00 0.48 0.26 100 1017.5
20260506163107 57 129 2.0 9.0 0.00 0.48 0.26 100 1017.4
20260506161557 56 119 3.0 8.0 0.00 0.48 0.26 100 1017.7
20260506160108 56 109 2.0 8.0 0.00 0.48 0.26 100 1017.6
20260506154553 56 194 2.0 7.0 0.00 0.48 0.26 100 1017.2
20260506153052 55 140 2.0 6.0 0.00 0.48 0.26 100 1017.1
20260506151551 55 136 2.0 5.0 0.00 0.48 0.26 100 1016.9
20260506150054 53 103 3.0 7.0 0.00 0.48 0.26 100 1016.8
20260506144559 52 107 3.0 9.0 0.00 0.48 0.26 100 1016.7
20260506143048 51 80 2.0 9.0 0.00 0.48 0.26 100 1016.6
20260506141545 50 114 1.0 5.0 0.00 0.48 0.26 100 1016.4
20260506140044 49 120 1.0 7.0 0.00 0.48 0.26 100 1016.2
20260506134542 48 134 2.0 5.0 0.00 0.48 0.26 100 1016.0
20260506133041 48 98 1.0 8.0 0.00 0.48 0.26 100 1015.9
20260506131548 47 84 2.0 10.0 0.00 0.48 0.26 100 1015.8
20260506130038 47 152 0.0 3.0 0.00 0.48 0.26 100 1015.4
20260506124537 47 360 2.0 6.0 0.01 0.48 0.26 100 1015.4
20260506123036 46 360 2.0 6.0 0.01 0.48 0.26 100 1015.2
20260506121534 47 360 0.0 5.0 0.01 0.48 0.26 100 1015.0
20260506120031 46 140 1.0 7.0 0.01 0.48 0.26 100 1014.3
20260506114537 46 123 1.0 7.0 0.00 0.47 0.25 100 1014.5
20260506113027 46 103 2.0 8.0 0.01 0.47 0.25 100 1013.8
20260506111525 46 129 1.0 7.0 0.01 0.47 0.25 100 1013.8
20260506110024 46 120 1.0 4.0 0.01 0.47 0.25 100 1012.9
20260506104521 46 109 0.0 4.0 0.01 0.47 0.25 100 1012.7
20260506103021 46 123 0.0 4.0 0.00 0.46 0.24 100 1012.6
20260506101520 46 134 1.0 5.0 0.01 0.46 0.24 100 1013.1
20260506100023 46 121 2.0 5.0 0.01 0.46 0.24 100 1012.7
20260506094514 46 144 1.0 8.0 0.01 0.46 0.24 100 1012.3
20260506093013 46 130 1.0 8.0 0.01 0.46 0.24 100 1012.3
20260506091513 46 196 1.0 7.0 0.02 0.45 0.23 100 1011.9
20260506090010 46 128 2.0 11.0 0.05 0.45 0.23 100 1012.2
20260506084508 47 121 3.0 11.0 0.06 0.45 0.23 100 1012.2
20260506083005 47 133 3.0 10.0 0.05 0.44 0.22 100 1011.5
20260506081505 47 360 2.0 10.0 0.06 0.43 0.21 100 1011.5
20260506073056 49 360 3.0 11.0 0.06 0.39 0.17 100 1010.8
20260506071557 50 360 2.0 10.0 0.05 0.37 0.15 100 1010.6
20260506061544 58 348 3.0 6.0 0.07 0.32 0.10 100 1010.5
20260506044543 57 306 0.0 2.0 0.01 0.23 0.01 100 1011.1